Time,TemperatureF,DewpointF,PressureIn,WindDirection,WindDirectionDegrees,WindSpeedMPH,WindSpeedGustMPH,Humidity,HourlyPrecipIn,Conditions,Clouds,dailyrainin,SoftwareType,DateUTC
2013-08-17 00:04:00,58.8,56.5,30.03,WNW,292,0.0,-999.0,92,-99.99,,,0.00,Acu-Link.com,2013-08-17 05:04:00,
2013-08-17 00:19:00,58.5,57.1,30.04,WNW,292,0.0,-999.0,95,-99.99,,,0.00,Acu-Link.com,2013-08-17 05:19:00,
2013-08-17 00:34:00,57.9,55.9,30.03,WNW,292,0.0,-999.0,93,-99.99,,,0.00,Acu-Link.com,2013-08-17 05:34:00,
2013-08-17 00:49:00,58.1,57.0,30.04,WNW,292,0.0,-999.0,96,-99.99,,,0.00,Acu-Link.com,2013-08-17 05:49:00,
2013-08-17 01:04:00,57.7,56.3,30.04,WNW,292,0.0,-999.0,95,-99.99,,,0.00,Acu-Link.com,2013-08-17 06:04:00,
2013-08-17 01:20:00,57.0,55.3,30.04,WNW,292,0.0,-999.0,94,-99.99,,,0.00,Acu-Link.com,2013-08-17 06:20:00,
2013-08-17 01:35:00,57.2,56.1,30.04,WNW,292,0.0,-999.0,96,-99.99,,,0.00,Acu-Link.com,2013-08-17 06:35:00,
2013-08-17 01:50:00,57.0,56.2,30.03,WNW,292,0.0,-999.0,97,-99.99,,,0.00,Acu-Link.com,2013-08-17 06:50:00,
2013-08-17 02:06:00,56.8,55.7,30.03,WNW,292,0.0,-999.0,96,-99.99,,,0.00,Acu-Link.com,2013-08-17 07:06:00,
2013-08-17 02:21:00,57.2,56.4,30.03,WNW,292,0.0,-999.0,97,-99.99,,,0.00,Acu-Link.com,2013-08-17 07:21:00,
2013-08-17 02:36:00,56.8,56.0,30.03,WNW,292,0.0,-999.0,97,-99.99,,,0.00,Acu-Link.com,2013-08-17 07:36:00,
2013-08-17 02:52:00,56.5,55.4,30.04,WNW,292,0.0,-999.0,96,-99.99,,,0.00,Acu-Link.com,2013-08-17 07:52:00,
2013-08-17 03:07:00,56.3,54.9,30.03,WNW,292,0.0,-999.0,95,-99.99,,,0.00,Acu-Link.com,2013-08-17 08:07:00,
2013-08-17 03:22:00,56.1,55.3,30.04,WNW,292,0.0,-999.0,97,-99.99,,,0.00,Acu-Link.com,2013-08-17 08:22:00,
2013-08-17 03:38:00,56.1,55.3,30.03,WNW,292,0.0,-999.0,97,-99.99,,,0.00,Acu-Link.com,2013-08-17 08:38:00,
2013-08-17 03:54:00,55.9,54.5,30.03,WNW,292,0.0,-999.0,95,-99.99,,,0.00,Acu-Link.com,2013-08-17 08:54:00,
2013-08-17 04:09:00,55.9,54.8,30.03,NW,315,0.0,-999.0,96,-99.99,,,0.00,Acu-Link.com,2013-08-17 09:09:00,
2013-08-17 04:24:00,55.4,54.6,30.03,NW,315,0.0,-999.0,97,-99.99,,,0.00,Acu-Link.com,2013-08-17 09:24:00,
2013-08-17 04:39:00,55.2,54.1,30.03,NW,315,0.0,-999.0,96,-99.99,,,0.00,Acu-Link.com,2013-08-17 09:39:00,
2013-08-17 04:54:00,55.2,54.4,30.02,NW,315,0.0,-999.0,97,-99.99,,,0.00,Acu-Link.com,2013-08-17 09:54:00,
2013-08-17 05:10:00,55.0,53.9,30.02,NW,315,0.0,-999.0,96,-99.99,,,0.00,Acu-Link.com,2013-08-17 10:10:00,
2013-08-17 05:25:00,54.9,54.1,30.02,NW,315,0.0,-999.0,97,-99.99,,,0.00,Acu-Link.com,2013-08-17 10:25:00,
2013-08-17 05:40:00,54.5,53.7,30.02,NW,315,0.0,-999.0,97,-99.99,,,0.00,Acu-Link.com,2013-08-17 10:40:00,
2013-08-17 05:55:00,54.3,53.5,30.03,NW,315,0.0,-999.0,97,-99.99,,,0.00,Acu-Link.com,2013-08-17 10:55:00,
2013-08-17 06:10:00,53.8,53.0,30.02,NW,315,0.0,-999.0,97,-99.99,,,0.00,Acu-Link.com,2013-08-17 11:10:00,
2013-08-17 06:25:00,54.5,53.9,30.03,NW,315,0.0,-999.0,98,-99.99,,,0.00,Acu-Link.com,2013-08-17 11:25:00,
2013-08-17 06:41:00,54.3,53.5,30.03,NW,315,0.0,-999.0,97,-99.99,,,0.00,Acu-Link.com,2013-08-17 11:41:00,
2013-08-17 06:56:00,54.0,53.2,30.04,NW,315,0.0,-999.0,97,-99.99,,,0.00,Acu-Link.com,2013-08-17 11:56:00,
2013-08-17 07:11:00,54.7,53.9,30.04,NW,315,0.0,-999.0,97,-99.99,,,0.00,Acu-Link.com,2013-08-17 12:11:00,
2013-08-17 07:27:00,55.4,54.8,30.04,NW,315,0.0,-999.0,98,-99.99,,,0.00,Acu-Link.com,2013-08-17 12:27:00,
2013-08-17 07:42:00,56.8,56.0,30.04,NW,315,0.0,-999.0,97,-99.99,,,0.00,Acu-Link.com,2013-08-17 12:42:00,
2013-08-17 07:57:00,58.6,57.2,30.05,NW,315,0.0,-999.0,95,-99.99,,,0.00,Acu-Link.com,2013-08-17 12:57:00,
2013-08-17 08:13:00,59.9,58.5,30.05,ESE,112,0.0,-999.0,95,-99.99,,,0.00,Acu-Link.com,2013-08-17 13:13:00,
2013-08-17 08:28:00,61.9,59.5,30.05,SSE,157,0.0,-999.0,92,-99.99,,,0.00,Acu-Link.com,2013-08-17 13:28:00,
2013-08-17 08:43:00,63.9,60.9,30.06,East,90,0.0,-999.0,90,-99.99,,,0.00,Acu-Link.com,2013-08-17 13:43:00,
2013-08-17 08:58:00,66.2,61.9,30.06,East,90,0.0,-999.0,86,-99.99,,,0.00,Acu-Link.com,2013-08-17 13:58:00,
2013-08-17 09:13:00,67.8,62.1,30.06,WNW,292,1.7,-999.0,82,-99.99,,,0.00,Acu-Link.com,2013-08-17 14:13:00,
2013-08-17 09:29:00,69.4,63.0,30.06,West,270,0.0,-999.0,80,-99.99,,,0.00,Acu-Link.com,2013-08-17 14:29:00,
2013-08-17 09:44:00,70.5,63.7,30.05,ENE,67,1.7,-999.0,79,-99.99,,,0.00,Acu-Link.com,2013-08-17 14:44:00,
2013-08-17 09:59:00,70.3,60.8,30.05,ESE,112,3.2,-999.0,72,-99.99,,,0.00,Acu-Link.com,2013-08-17 14:59:00,
2013-08-17 10:15:00,70.9,61.8,30.05,WNW,292,3.2,-999.0,73,-99.99,,,0.00,Acu-Link.com,2013-08-17 15:15:00,
2013-08-17 10:30:00,70.2,61.1,30.06,ESE,112,2.2,-999.0,73,-99.99,,,0.00,Acu-Link.com,2013-08-17 15:30:00,
2013-08-17 10:45:00,69.4,60.4,30.06,SSW,202,1.1,-999.0,73,-99.99,,,0.00,Acu-Link.com,2013-08-17 15:45:00,
2013-08-17 11:01:00,71.1,61.2,30.06,East,90,1.7,-999.0,71,-99.99,,,0.00,Acu-Link.com,2013-08-17 16:01:00,
2013-08-17 11:16:00,72.7,61.5,30.06,North,0,3.2,-999.0,68,-99.99,,,0.00,Acu-Link.com,2013-08-17 16:16:00,
2013-08-17 11:31:00,72.9,62.9,30.05,ESE,112,1.7,-999.0,71,-99.99,,,0.00,Acu-Link.com,2013-08-17 16:31:00,
2013-08-17 11:46:00,74.1,62.4,30.05,ENE,67,3.2,-999.0,67,-99.99,,,0.00,Acu-Link.com,2013-08-17 16:46:00,
2013-08-17 12:01:00,74.7,62.6,30.05,NE,45,3.2,-999.0,66,-99.99,,,0.00,Acu-Link.com,2013-08-17 17:01:00,
2013-08-17 12:17:00,72.3,61.1,30.05,ESE,112,2.2,-999.0,68,-99.99,,,0.00,Acu-Link.com,2013-08-17 17:17:00,
2013-08-17 12:32:00,72.3,62.0,30.05,North,0,1.7,-999.0,70,-99.99,,,0.00,Acu-Link.com,2013-08-17 17:32:00,
2013-08-17 12:47:00,72.7,61.5,30.04,WNW,292,2.2,-999.0,68,-99.99,,,0.00,Acu-Link.com,2013-08-17 17:47:00,
2013-08-17 13:03:00,73.6,62.4,30.05,WNW,292,1.7,-999.0,68,-99.99,,,0.00,Acu-Link.com,2013-08-17 18:03:00,
2013-08-17 13:18:00,75.2,61.3,30.04,SE,135,1.7,-999.0,62,-99.99,,,0.00,Acu-Link.com,2013-08-17 18:18:00,
2013-08-17 13:33:00,75.4,63.2,30.03,ESE,112,4.2,-999.0,66,-99.99,,,0.00,Acu-Link.com,2013-08-17 18:33:00,
2013-08-17 13:48:00,76.6,62.6,30.03,NE,45,2.7,-999.0,62,-99.99,,,0.00,Acu-Link.com,2013-08-17 18:48:00,
2013-08-17 14:04:00,77.0,63.4,30.03,NNW,337,2.7,-999.0,63,-99.99,,,0.00,Acu-Link.com,2013-08-17 19:04:00,
2013-08-17 14:19:00,78.1,62.1,30.01,ESE,112,2.7,-999.0,58,-99.99,,,0.00,Acu-Link.com,2013-08-17 19:19:00,
2013-08-17 14:34:00,75.9,62.4,30.02,ESE,112,3.2,-999.0,63,-99.99,,,0.00,Acu-Link.com,2013-08-17 19:34:00,
2013-08-17 14:49:00,76.8,64.1,30.01,ESE,112,1.7,-999.0,65,-99.99,,,0.00,Acu-Link.com,2013-08-17 19:49:00,
2013-08-17 15:04:00,76.8,62.3,30.00,NNW,337,5.3,-999.0,61,-99.99,,,0.00,Acu-Link.com,2013-08-17 20:04:00,
2013-08-17 15:19:00,77.4,61.0,29.99,NNE,22,2.2,-999.0,57,-99.99,,,0.00,Acu-Link.com,2013-08-17 20:19:00,
2013-08-17 15:35:00,78.3,61.3,29.99,ESE,112,3.7,-999.0,56,-99.99,,,0.00,Acu-Link.com,2013-08-17 20:35:00,
2013-08-17 15:50:00,78.1,62.1,29.99,ESE,112,2.7,-999.0,58,-99.99,,,0.00,Acu-Link.com,2013-08-17 20:50:00,
2013-08-17 16:05:00,78.1,62.6,29.99,North,0,2.7,-999.0,59,-99.99,,,0.00,Acu-Link.com,2013-08-17 21:05:00,
2013-08-17 16:20:00,78.1,62.1,29.99,WNW,292,2.2,-999.0,58,-99.99,,,0.00,Acu-Link.com,2013-08-17 21:20:00,
2013-08-17 16:36:00,76.3,61.4,29.99,ESE,112,1.7,-999.0,60,-99.99,,,0.00,Acu-Link.com,2013-08-17 21:36:00,
2013-08-17 16:51:00,76.5,61.6,29.98,ESE,112,1.1,-999.0,60,-99.99,,,0.00,Acu-Link.com,2013-08-17 21:51:00,
2013-08-17 17:06:00,77.2,62.7,29.98,NNE,22,2.7,-999.0,61,-99.99,,,0.00,Acu-Link.com,2013-08-17 22:06:00,
2013-08-17 17:21:00,76.1,62.1,29.98,SW,225,0.0,-999.0,62,-99.99,,,0.00,Acu-Link.com,2013-08-17 22:21:00,
2013-08-17 17:37:00,76.8,60.9,29.98,NNW,337,1.7,-999.0,58,-99.99,,,0.00,Acu-Link.com,2013-08-17 22:37:00,
2013-08-17 17:52:00,77.0,62.5,29.97,East,90,1.7,-999.0,61,-99.99,,,0.00,Acu-Link.com,2013-08-17 22:52:00,
2013-08-17 18:07:00,75.9,62.8,29.97,SSE,157,1.7,-999.0,64,-99.99,,,0.00,Acu-Link.com,2013-08-17 23:07:00,
2013-08-17 18:23:00,75.6,63.0,29.97,ESE,112,0.0,-999.0,65,-99.99,,,0.00,Acu-Link.com,2013-08-17 23:23:00,
2013-08-17 18:38:00,75.2,61.7,29.97,NNW,337,1.1,-999.0,63,-99.99,,,0.00,Acu-Link.com,2013-08-17 23:38:00,
2013-08-17 18:53:00,74.7,62.6,29.97,NW,315,0.0,-999.0,66,-99.99,,,0.00,Acu-Link.com,2013-08-17 23:53:00,
2013-08-17 19:08:00,73.9,63.1,29.97,NNW,337,0.0,-999.0,69,-99.99,,,0.00,Acu-Link.com,2013-08-18 00:08:00,
2013-08-17 19:24:00,73.0,62.6,29.98,NNW,337,0.0,-999.0,70,-99.99,,,0.00,Acu-Link.com,2013-08-18 00:24:00,
2013-08-17 19:39:00,72.1,64.1,29.97,NNE,22,0.0,-999.0,76,-99.99,,,0.00,Acu-Link.com,2013-08-18 00:39:00,
2013-08-17 19:54:00,70.7,64.2,29.98,North,0,0.0,-999.0,80,-99.99,,,0.00,Acu-Link.com,2013-08-18 00:54:00,
2013-08-17 20:10:00,69.6,63.9,29.98,North,0,0.0,-999.0,82,-99.99,,,0.00,Acu-Link.com,2013-08-18 01:10:00,
2013-08-17 20:25:00,68.5,64.1,29.98,NE,45,0.0,-999.0,86,-99.99,,,0.00,Acu-Link.com,2013-08-18 01:25:00,
2013-08-17 20:40:00,67.5,63.2,29.98,East,90,0.0,-999.0,86,-99.99,,,0.00,Acu-Link.com,2013-08-18 01:40:00,
2013-08-17 20:55:00,66.4,63.1,29.98,East,90,0.0,-999.0,89,-99.99,,,0.00,Acu-Link.com,2013-08-18 01:55:00,
2013-08-17 21:10:00,65.5,62.5,29.98,ESE,112,0.0,-999.0,90,-99.99,,,0.00,Acu-Link.com,2013-08-18 02:10:00,
2013-08-17 21:26:00,65.3,62.3,29.99,SSE,157,0.0,-999.0,90,-99.99,,,0.00,Acu-Link.com,2013-08-18 02:26:00,
2013-08-17 21:41:00,65.1,61.8,30.00,ESE,112,0.0,-999.0,89,-99.99,,,0.00,Acu-Link.com,2013-08-18 02:41:00,
2013-08-17 21:56:00,64.8,61.8,30.00,ESE,112,0.0,-999.0,90,-99.99,,,0.00,Acu-Link.com,2013-08-18 02:56:00,
2013-08-17 22:12:00,64.2,61.5,30.01,ESE,112,0.0,-999.0,91,-99.99,,,0.00,Acu-Link.com,2013-08-18 03:12:00,
2013-08-17 22:27:00,63.9,61.2,30.00,ESE,112,0.0,-999.0,91,-99.99,,,0.00,Acu-Link.com,2013-08-18 03:27:00,
2013-08-17 22:42:00,63.5,61.1,30.00,NE,45,0.0,-999.0,92,-99.99,,,0.00,Acu-Link.com,2013-08-18 03:42:00,
2013-08-17 22:58:00,63.1,60.7,30.00,North,0,0.0,-999.0,92,-99.99,,,0.00,Acu-Link.com,2013-08-18 03:58:00,
2013-08-17 23:13:00,62.6,60.5,30.00,ESE,112,0.0,-999.0,93,-99.99,,,0.00,Acu-Link.com,2013-08-18 04:13:00,
2013-08-17 23:28:00,62.4,60.3,30.00,ESE,112,0.0,-999.0,93,-99.99,,,0.00,Acu-Link.com,2013-08-18 04:28:00,
2013-08-17 23:43:00,62.1,60.4,30.01,SW,225,0.0,-999.0,94,-99.99,,,0.00,Acu-Link.com,2013-08-18 04:43:00,
2013-08-17 23:59:00,61.9,60.7,30.01,WNW,292,0.0,-999.0,96,-99.99,,,0.00,Acu-Link.com,2013-08-18 04:59:00,